When you browse on this site, cookies collect data to enhance your experience and personalize the content and advertising you see.
Visit our Privacy Policy to learn more. By continuing to use the site, you agree to this use of cookies and data.
  • In Netherlands
  • List of Countries
  • For 7 days
  • Water Temperature
  • Satellite Maps
  • Weather Map
  • Weather Widgets
  • user-avatar
    Login

    Hourly Weather Melbourne

    Today, 21 March, Thursday

    Time Temperature Precipitation Wind Pressure Humidity
    00:00 +21°C° 0 mm 2 mps 760 mmHg 90%
    01:00 +21°C° 0 mm 1 mps 760 mmHg 91%
    02:00 +21°C° 0 mm 1 mps 759 mmHg 91%
    03:00 +20°C° 0 mm 2 mps 759 mmHg 91%
    04:00 +21°C° 0 mm 1 mps 759 mmHg 91%
    05:00 +21°C° 0 mm 1 mps 759 mmHg 91%
    06:00 +21°C° 0 mm 1 mps 759 mmHg 91%
    07:00 +21°C° 0 mm 1 mps 760 mmHg 90%
    08:00 +22°C° 0 mm 1 mps 760 mmHg 85%
    09:00 +23°C° 0 mm 1 mps 760 mmHg 80%
    10:00 +24°C° 0 mm 1 mps 760 mmHg 76%
    11:00 +26°C° 0 mm 1 mps 760 mmHg 68%
    12:00 +27°C° 0 mm 1 mps 760 mmHg 61%
    13:00 +29°C° 0 mm 1 mps 760 mmHg 54%
    14:00 +29°C° 0 mm 2 mps 759 mmHg 54%
    15:00 +29°C° 0 mm 3 mps 759 mmHg 53%
    16:00 +29°C° 0 mm 3 mps 759 mmHg 53%
    17:00 +27°C° 0 mm 3 mps 759 mmHg 59%
    18:00 +26°C° 0 mm 3 mps 759 mmHg 66%
    19:00 +25°C° 0 mm 3 mps 759 mmHg 72%
    20:00 +24°C° 0 mm 2 mps 760 mmHg 76%
    21:00 +23°C° 0 mm 2 mps 760 mmHg 80%
    22:00 +21°C° 0 mm 2 mps 760 mmHg 84%
    23:00 +21°C° 0 mm 2 mps 760 mmHg 85%

    Tomorrow, 22 March, Friday

    Time Temperature Precipitation Wind Pressure Humidity
    00:00 +20°C° 0 mm 2 mps 760 mmHg 87%
    01:00 +20°C° 0 mm 2 mps 760 mmHg 88%
    02:00 +21°C° 0 mm 1 mps 760 mmHg 89%
    03:00 +21°C° 0 mm 1 mps 760 mmHg 90%
    04:00 +20°C° 0 mm 1 mps 760 mmHg 90%
    05:00 +18°C° 0 mm 0 mps 760 mmHg 90%
    06:00 +18°C° 0 mm 0 mps 760 mmHg 90%
    07:00 +18°C° 0 mm 0 mps 760 mmHg 89%
    08:00 +20°C° 0.1 mm 0 mps 760 mmHg 81%
    09:00 +24°C° 0.1 mm 1 mps 760 mmHg 73%
    10:00 +25°C° 0.1 mm 1 mps 760 mmHg 64%
    11:00 +28°C° 0.1 mm 1 mps 759 mmHg 57%
    12:00 +30°C° 0.1 mm 1 mps 759 mmHg 49%
    13:00 +32°C° 0.1 mm 2 mps 758 mmHg 41%
    14:00 +32°C° 0 mm 2 mps 758 mmHg 38%
    15:00 +34°C° 0 mm 2 mps 757 mmHg 35%
    16:00 +35°C° 0 mm 2 mps 756 mmHg 32%
    17:00 +32°C° 0 mm 2 mps 756 mmHg 36%
    18:00 +31°C° 0 mm 2 mps 756 mmHg 41%
    19:00 +29°C° 0 mm 3 mps 757 mmHg 45%
    20:00 +28°C° 0 mm 3 mps 757 mmHg 49%
    21:00 +27°C° 0 mm 3 mps 757 mmHg 54%
    22:00 +26°C° 0 mm 3 mps 757 mmHg 58%
    23:00 +25°C° 0.1 mm 3 mps 756 mmHg 60%

    Day after tomorrow, 23 March, Saturday

    Time Temperature Precipitation Wind Pressure Humidity
    00:00 +25°C° 0.1 mm 3 mps 756 mmHg 62%
    01:00 +24°C° 0.1 mm 3 mps 755 mmHg 63%
    02:00 +25°C° 0 mm 3 mps 755 mmHg 60%
    03:00 +25°C° 0 mm 4 mps 755 mmHg 57%
    04:00 +26°C° 0 mm 5 mps 754 mmHg 54%
    05:00 +25°C° 0.3 mm 5 mps 754 mmHg 58%
    06:00 +25°C° 0.3 mm 4 mps 754 mmHg 61%
    07:00 +23°C° 0.3 mm 4 mps 754 mmHg 65%
    08:00 +26°C° 0.2 mm 5 mps 754 mmHg 58%
    09:00 +27°C° 0.2 mm 6 mps 753 mmHg 52%
    10:00 +29°C° 0.2 mm 6 mps 753 mmHg 45%
    11:00 +32°C° 0 mm 6 mps 753 mmHg 38%
    12:00 +34°C° 0 mm 5 mps 752 mmHg 31%
    13:00 +37°C° 0 mm 5 mps 752 mmHg 24%
    14:00 +36°C° 0 mm 5 mps 752 mmHg 25%
    15:00 +36°C° 0 mm 6 mps 751 mmHg 26%
    16:00 +35°C° 0 mm 6 mps 751 mmHg 27%
    17:00 +33°C° 0 mm 5 mps 752 mmHg 36%
    18:00 +30°C° 0 mm 5 mps 753 mmHg 45%
    19:00 +27°C° 0 mm 4 mps 753 mmHg 54%
    20:00 +26°C° 0 mm 4 mps 754 mmHg 58%
    21:00 +25°C° 0 mm 3 mps 755 mmHg 62%
    22:00 +24°C° 0 mm 2 mps 756 mmHg 66%
    23:00 +23°C° 0 mm 2 mps 756 mmHg 67%

    24 March, Sunday

    Time Temperature Precipitation Wind Pressure Humidity
    00:00 +21°C° 0 mm 2 mps 756 mmHg 67%
    01:00 +21°C° 0 mm 2 mps 757 mmHg 68%
    02:00 +22°C° 0 mm 1 mps 757 mmHg 68%
    03:00 +21°C° 0 mm 1 mps 757 mmHg 68%
    04:00 +21°C° 0 mm 1 mps 757 mmHg 69%
    05:00 +21°C° 0 mm 1 mps 757 mmHg 69%
    06:00 +21°C° 0 mm 1 mps 757 mmHg 69%
    07:00 +21°C° 0 mm 1 mps 757 mmHg 70%
    08:00 +23°C° 0 mm 1 mps 757 mmHg 64%
    09:00 +24°C° 0 mm 2 mps 757 mmHg 59%
    10:00 +26°C° 0 mm 2 mps 757 mmHg 53%
    11:00 +27°C° 0 mm 3 mps 757 mmHg 48%
    12:00 +28°C° 0 mm 3 mps 756 mmHg 44%
    13:00 +30°C° 0 mm 4 mps 755 mmHg 39%
    14:00 +30°C° 0 mm 5 mps 754 mmHg 40%
    15:00 +30°C° 0 mm 6 mps 754 mmHg 41%
    16:00 +30°C° 0 mm 7 mps 753 mmHg 42%
    17:00 +28°C° 0.1 mm 7 mps 753 mmHg 49%
    18:00 +27°C° 0.1 mm 7 mps 753 mmHg 57%
    19:00 +26°C° 0.1 mm 8 mps 753 mmHg 64%
    20:00 +24°C° 0 mm 8 mps 753 mmHg 66%
    21:00 +24°C° 0 mm 8 mps 752 mmHg 67%
    22:00 +23°C° 0 mm 8 mps 752 mmHg 69%
    23:00 +23°C° 0.2 mm 9 mps 751 mmHg 69%

    25 March, Monday

    Time Temperature Precipitation Wind Pressure Humidity
    00:00 +23°C° 0.2 mm 9 mps 751 mmHg 69%
    01:00 +23°C° 0.2 mm 10 mps 750 mmHg 70%
    02:00 +23°C° 0.7 mm 9 mps 750 mmHg 71%
    03:00 +23°C° 0.7 mm 8 mps 750 mmHg 72%
    04:00 +22°C° 0.7 mm 7 mps 750 mmHg 74%
    05:00 +21°C° 0.5 mm 7 mps 750 mmHg 71%
    06:00 +20°C° 0.5 mm 6 mps 751 mmHg 68%
    07:00 +19°C° 0.5 mm 6 mps 751 mmHg 65%
    08:00 +18°C° 0 mm 7 mps 752 mmHg 58%
    09:00 +18°C° 0 mm 7 mps 753 mmHg 52%
    10:00 +18°C° 0 mm 8 mps 753 mmHg 46%
    11:00 +18°C° 0 mm 8 mps 754 mmHg 43%
    12:00 +18°C° 0 mm 8 mps 754 mmHg 40%
    13:00 +17°C° 0 mm 8 mps 755 mmHg 37%
    14:00 +18°C° 0 mm 8 mps 755 mmHg 34%
    15:00 +18°C° 0 mm 7 mps 755 mmHg 31%
    16:00 +18°C° 0 mm 7 mps 755 mmHg 28%
    17:00 +17°C° 0 mm 6 mps 756 mmHg 31%
    18:00 +17°C° 0 mm 6 mps 757 mmHg 34%
    19:00 +16°C° 0 mm 6 mps 758 mmHg 37%
    20:00 +15°C° 0 mm 5 mps 758 mmHg 40%
    21:00 +14°C° 0 mm 5 mps 759 mmHg 43%
    22:00 +14°C° 0 mm 5 mps 759 mmHg 46%
    23:00 +13°C° 0 mm 5 mps 760 mmHg 47%

    26 March, Tuesday

    Time Temperature Precipitation Wind Pressure Humidity
    00:00 +13°C° 0 mm 5 mps 760 mmHg 48%
    01:00 +13°C° 0 mm 5 mps 760 mmHg 50%
    02:00 +12°C° 0 mm 5 mps 760 mmHg 51%
    03:00 +12°C° 0 mm 5 mps 760 mmHg 52%
    04:00 +12°C° 0 mm 5 mps 760 mmHg 54%
    05:00 +12°C° 0 mm 5 mps 760 mmHg 56%
    06:00 +12°C° 0 mm 5 mps 761 mmHg 58%
    07:00 +12°C° 0 mm 5 mps 762 mmHg 60%
    08:00 +13°C° 0 mm 5 mps 762 mmHg 58%
    09:00 +14°C° 0 mm 5 mps 763 mmHg 56%
    10:00 +15°C° 0 mm 5 mps 763 mmHg 54%
    11:00 +17°C° 0 mm 4 mps 763 mmHg 50%
    12:00 +18°C° 0 mm 4 mps 763 mmHg 47%
    13:00 +19°C° 0 mm 4 mps 763 mmHg 43%
    14:00 +19°C° 0 mm 4 mps 763 mmHg 44%
    15:00 +19°C° 0 mm 4 mps 763 mmHg 45%
    16:00 +20°C° 0 mm 4 mps 763 mmHg 46%
    17:00 +19°C° 0 mm 3 mps 764 mmHg 52%
    18:00 +18°C° 0 mm 3 mps 764 mmHg 58%
    19:00 +17°C° 0 mm 3 mps 765 mmHg 64%
    20:00 +17°C° 0 mm 3 mps 766 mmHg 67%
    21:00 +16°C° 0 mm 3 mps 766 mmHg 70%
    22:00 +15°C° 0 mm 2 mps 767 mmHg 73%
    23:00 +15°C° 0 mm 2 mps 767 mmHg 73%
    Show more